STARLINK-36100

Last updated on Fri Dec 19 2025 00:02:08 GMT+0000 (Coordinated Universal Time)

1 66942U 25286T 25352.58336806 -.01337930 00000+0 -71240-2 0 9999 2 66942 53.1554 21.0013 0000845 50.1552 90.1646 15.82622610 2869
UTC large
Height (km)
Speed (km/s)
/
Latitude / Longitude
Inclination (degrees)
Orbital Period (minutes)
Azimuth
Elevation
Range (km)
Doppler Factor

Next 0 passes for location: London (51.5072 / 0.1276)

Sorry there are no passes over London.